Weather in Kybartų

Lithuania     54°38′19″N   22°46′06″E
temp.,
°C
wind,
m/s
gust,
m/s
humid.,
%
clouds,
%
prec.,
mm/h
press.,
hPa
HPBL,
m
28 july, wed
wed2823:00+18sw239598 0.3 101157
02:00+17wsw3496100 0.3 101171
05:00+16w229553 0.0 101119
08:00+20sw228387 0.0 1012247
11:00+25wsw235786 0.0 1011854
14:00+27wsw464693 0.4 10111952
17:00+25w235866 0.0 1010151
20:00+23sse336815 0.0 100934
29 july, thu
thu2923:00+19ssw249671 1.6 100995
02:00+18sw3897100 1.7 1009250
05:00+18wsw3797100 0.2 1009261
08:00+20wnw47835 0.2 1009430
11:00+25w46550 0.0 10091399
14:00+26wsw784591 0.0 10082383
17:00+22nw2566100 0.0 1008215
20:00+19w35745 0.1 1008116
30 july, fri
fri3023:00+17wnw248127 0.0 1009133
02:00+14ssw339440 0.0 100951
05:00+15ssw311905 0.1 1008275
08:00+19wsw6115874 0.1 1008566
11:00+21wsw712485 0.0 10081637
14:00+21wsw61149100 0.0 10061680
17:00+23sw7104621 0.0 10052224
20:00+20wsw48509 0.0 1005393
31 july, sat
sat3123:00+14wsw35765 0.0 100681
02:00+13sw410760 0.0 1007198
05:00+13sw378195 0.0 1006127
08:00+19ssw475996 0.0 1006338
11:00+24ssw4648100 0.0 1005923
14:00+22s6966100 0.1 1005628
17:00+23sw6868100 0.1 10031233
20:00+19w3481100 0.8 100377
1 august, sun
sun123:00+15sw33910 0.1 100544
02:00+13sw411870 0.1 1005231
05:00+13sw513830 0.0 1006355
08:00+18wsw6106714 0.0 1006653
11:00+22wsw6857100 0.0 10071552
14:00+24w5745100 0.1 10072097
17:00+23w344898 0.0 10071624
20:00+19nnw2265100 0.0 100726